Wind_Speed
27 27 28 29 28 29 31 31 32 29 28 27 29 30 30 30 30 30 31 32 33 35 36 37 38 39 40 40 40 41 41 42 43 43 43 44 44 45 46 46 47 46 47 46
28 28 29 29 28 28 29 29 30 29 27 26 28 29 29 29 30 30 31 32 33 34 35 36 37 37 38 38 39 39 40 41 42 43 43 43 43 43 44 45 45 46 46 46
28 28 29 28 27 28 28 28 29 29 27 27 28 28 29 29 29 30 30 31 32 33 34 35 36 37 37 37 38 38 40 41 41 41 41 42 43 43 43 43 44 44 45 45
27 27 28 26 26 26 27 27 28 28 28 29 30 30 30 30 30 30 31 31 32 32 33 34 35 35 36 37 37 38 38 39 39 40 40 41 41 42 42 42 43 43 43 44
27 27 27 25 24 25 26 27 27 28 28 29 30 31 31 31 31 31 31 32 32 33 33 33 33 34 35 36 37 37 37 38 38 39 40 40 40 41 42 42 43 43 43 43
26 27 26 24 24 25 27 28 27 28 28 29 30 31 31 32 33 33 33 33 33 33 33 33 33 34 34 35 36 37 38 38 38 38 39 39 40 40 41 41 41 41 42 42
26 26 25 24 24 25 26 26 27 28 29 30 30 31 32 32 33 34 34 34 34 34 34 33 33 34 34 35 36 37 38 38 38 38 38 38 38 39 39 38 38 39 39 39
26 25 24 24 24 24 25 26 26 27 29 30 31 32 32 33 34 34 34 34 34 35 34 34 34 34 35 35 35 36 37 37 37 37 38 38 38 38 38 38 37 37 37 38
27 26 25 25 25 25 25 26 27 28 28 29 31 32 32 33 34 34 34 33 33 33 33 34 34 35 35 35 35 35 36 37 37 37 37 37 37 37 37 37 37 36 36 37
27 26 26 27 26 26 27 27 28 28 29 30 30 30 31 31 32 32 33 33 33 33 33 33 34 34 34 35 35 35 35 36 36 36 36 36 36 37 36 36 36 36 35 36
26 26 27 27 27 27 28 28 28 28 29 29 30 30 30 30 31 31 31 31 32 32 33 33 34 34 34 34 34 34 34 35 35 35 35 35 35 35 35 35 35 35 35 35
25 25 26 26 26 26 27 27 28 28 28 29 29 29 30 30 31 30 30 30 31 31 32 32 33 33 33 33 33 33 34 34 34 34 34 34 34 34 34 34 34 34 34 33
24 25 26 26 26 26 26 26 27 27 27 27 28 28 28 28 29 29 30 30 30 30 30 31 31 32 32 32 32 33 33 33 33 33 33 33 32 32 32 32 32 32 32 32
24 24 25 25 26 26 26 26 26 26 27 27 27 27 27 27 27 28 28 29 29 30 30 30 30 30 31 31 32 32 32 32 32 32 32 32 32 31 31 31 31 31 31 31
24 24 24 25 25 25 26 26 26 27 27 27 26 26 26 26 26 27 27 27 28 28 28 29 29 29 30 30 31 31 31 31 31 32 32 31 31 31 31 30 30 30 30 30
23 23 23 24 24 25 25 25 25 26 26 26 26 26 26 26 26 26 26 26 26 27 27 27 28 28 29 29 30 30 30 31 31 30 30 30 30 30 30 30 29 29 29 29
21 21 22 23 24 24 24 25 25 25 25 25 25 25 25 25 25 25 25 25 25 26 26 26 27 27 28 28 29 29 30 30 30 30 29 30 30 30 29 29 28 28 28 28
21 21 22 22 23 23 24 23 23 23 24 24 24 24 24 24 24 24 24 24 25 25 26 26 27 27 27 27 28 28 28 28 28 28 28 28 28 28 27 27 27 27 27 27
20 21 21 22 23 23 23 23 23 23 24 24 24 24 24 24 24 24 24 25 25 25 26 26 26 26 26 26 26 27 27 26 26 26 26 26 26 26 26 26 26 26 26 26
20 21 22 22 23 23 22 22 23 23 24 24 24 24 23 24 24 24 24 25 25 25 25 25 25 25 25 25 25 25 25 24 24 24 24 24 24 24 24 24 24 24 25 25
19 20 21 21 21 21 22 22 23 23 24 24 24 23 23 23 23 23 23 24 24 24 24 24 24 24 24 23 23 23 23 23 23 23 23 23 23 23 23 23 23 24 24 25
19 19 20 20 20 21 22 22 23 23 23 23 23 22 22 22 22 22 22 23 23 23 22 22 22 22 22 22 22 22 22 22 22 22 22 22 22 22 22 22 22 23 23 23
19 19 20 20 21 21 22 23 23 23 22 22 21 21 21 21 21 21 21 21 21 21 21 21 21 21 21 21 21 21 21 21 21 21 22 22 22 22 22 22 22 22 22 23
19 19 20 20 20 21 22 22 22 21 21 21 20 20 20 20 20 21 21 21 21 21 20 20 20 20 20 20 21 21 21 21 20 20 21 21 22 22 22 22 22 22 22 22
19 19 19 20 20 21 21 21 20 20 20 20 20 20 20 20 20 20 21 21 21 20 20 20 20 20 20 20 20 20 20 20 20 20 21 21 21 21 21 21 21 22 22 22
19 19 20 20 20 20 20 20 20 20 20 19 19 19 19 19 20 20 20 20 19 19 19 19 19 19 19 19 19 19 19 19 20 20 20 20 20 20 20 20 20 21 21 21
19 19 19 19 19 19 19 19 19 19 19 19 18 18 18 18 18 18 18 18 18 18 18 17 17 17 17 17 17 18 18 19 20 20 20 20 20 20 20 20 20 20 20 20
Wind_Direction
259 261 260 259 259 260 259 258 261 263 261 260 260 261 263 263 263 264 265 264 264 264 264 264 264 264 264 265 265 266 266 266 266 267 267 268 268 268 269 270 270 271 271 273
261 263 263 261 261 261 260 259 261 262 260 260 260 262 263 264 264 264 266 266 266 266 265 266 265 265 264 265 266 267 268 268 268 268 268 268 268 269 270 270 271 270 271 272
262 263 264 263 264 262 262 262 263 263 262 259 261 264 265 266 266 266 267 268 267 267 267 266 265 265 265 266 267 268 268 269 269 269 268 268 269 270 271 271 272 271 271 273
263 263 264 266 264 262 262 262 263 263 262 263 264 265 267 269 269 269 269 269 270 270 270 268 267 266 266 266 267 269 270 270 269 269 270 270 270 271 272 272 273 273 273 274
266 267 267 265 266 265 264 264 265 265 265 265 266 267 269 270 271 271 271 271 272 272 271 270 269 267 267 268 268 269 271 271 271 270 270 270 271 272 273 273 274 274 275 275
266 269 269 269 267 267 267 266 266 267 267 268 270 270 271 271 271 271 271 272 272 272 271 270 269 269 270 270 270 270 271 272 272 272 272 272 272 273 274 274 274 275 275 277
265 267 269 271 271 270 270 271 269 269 269 269 270 271 272 272 272 271 270 270 270 270 270 269 269 270 271 272 272 272 272 272 272 273 273 273 274 275 275 274 275 276 276 277
265 268 271 273 273 272 274 274 273 271 270 270 271 272 272 273 272 271 270 270 270 270 269 268 268 270 271 273 274 274 274 273 273 273 274 274 274 275 275 275 276 276 277 277
264 268 271 273 274 273 273 273 274 273 272 273 273 273 273 272 271 270 270 270 270 270 269 269 269 270 271 273 274 275 275 275 274 274 274 274 274 275 275 276 276 276 277 277
264 265 269 271 272 272 272 273 273 273 272 273 274 273 274 274 271 270 271 270 270 270 269 269 269 270 271 272 274 275 276 276 275 274 274 274 275 274 275 275 275 276 277 278
265 267 269 271 273 272 272 273 274 274 276 276 276 275 274 273 272 271 271 271 271 271 270 269 270 271 272 273 274 275 275 276 275 275 274 275 275 275 275 275 275 276 277 278
267 268 269 270 272 274 274 274 275 275 276 277 276 276 275 274 273 272 272 272 272 272 272 271 271 272 273 273 274 274 275 275 275 274 274 274 275 275 276 276 276 276 276 278
268 269 270 270 272 275 277 276 276 276 276 276 276 277 277 276 274 274 273 273 274 274 273 272 272 273 273 273 274 274 275 275 274 274 274 274 275 276 276 277 277 277 277 278
270 271 272 273 274 276 278 278 278 278 278 278 279 279 280 278 277 276 275 274 273 274 273 272 272 273 274 274 274 274 275 274 274 274 274 275 276 276 276 277 277 277 277 279
273 274 274 275 275 277 279 279 279 280 281 280 280 280 280 279 278 278 277 276 275 275 274 273 272 273 274 275 275 275 275 275 274 275 275 275 276 277 277 277 277 277 278 279
273 275 276 277 277 279 280 280 280 281 281 280 279 281 281 281 281 281 280 278 276 275 275 273 274 274 275 275 276 276 276 276 276 276 276 276 276 277 277 277 277 278 279 280
274 275 278 280 281 281 281 280 280 281 280 280 280 281 282 282 282 282 281 278 277 277 276 275 276 276 277 277 278 278 277 277 277 277 277 276 276 277 277 277 277 278 279 280
274 276 279 281 281 281 281 282 282 281 281 281 281 281 281 281 281 281 280 280 278 278 278 278 278 278 278 278 279 279 278 279 279 277 276 277 276 277 276 276 276 278 279 279
273 276 279 282 283 284 284 284 283 283 283 283 282 282 281 281 281 281 281 282 281 280 280 281 280 279 279 279 279 278 278 278 278 277 276 276 276 277 277 276 277 278 279 280
276 280 282 284 285 286 286 285 286 286 285 285 284 282 281 282 283 282 282 283 283 282 281 280 280 279 278 278 278 277 277 277 277 277 276 276 277 277 278 278 278 278 279 280
281 285 286 286 287 287 288 288 288 288 288 287 286 283 283 283 283 283 283 283 284 284 283 282 281 279 278 277 277 277 277 278 277 277 276 276 277 278 279 279 279 279 280 281
285 286 287 288 288 289 290 291 291 290 289 288 287 284 283 282 283 283 284 285 285 285 284 283 281 279 276 276 277 277 277 277 276 276 275 276 277 279 280 280 280 280 281 281
287 288 289 289 290 291 293 293 293 292 290 290 288 286 285 283 283 284 285 286 287 287 287 285 283 280 278 278 278 278 278 278 277 276 276 277 279 279 280 279 280 280 281 282
289 291 291 291 292 294 296 297 295 293 291 290 289 288 287 285 285 286 287 288 288 288 288 286 283 281 280 279 279 279 279 279 278 277 278 279 280 280 280 280 280 281 282 283
291 292 293 294 295 297 298 298 297 296 294 291 290 289 288 288 288 288 289 289 288 287 287 286 284 282 281 280 279 279 279 279 278 278 278 280 281 282 282 282 281 281 282 283
293 293 295 296 297 298 298 298 298 297 295 293 291 290 290 290 290 289 290 290 289 288 288 287 284 282 282 281 280 279 279 280 280 280 280 281 281 282 283 283 283 283 284 284
297 297 298 299 299 299 299 300 299 298 297 295 294 294 294 293 293 292 292 292 291 289 288 288 286 285 285 284 283 282 282 282 282 282 281 281 282 282 283 283 283 283 284 284
Height
5586 5587 5588 5589 5590 5591 5591 5592 5593 5596 5598 5600 5600 5601 5602 5602 5603 5604 5604 5605 5605 5606 5607 5607 5608 5608 5609 5609 5609 5609 5609 5609 5609 5609 5609 5609 5609 5608 5608 5608 5608 5607 5607 5606
5579 5580 5580 5581 5583 5583 5584 5585 5586 5588 5591 5592 5592 5593 5593 5594 5595 5595 5596 5596 5596 5597 5597 5597 5598 5598 5598 5599 5599 5599 5598 5598 5598 5598 5598 5597 5597 5596 5596 5596 5596 5595 5595 5595
5573 5573 5573 5575 5577 5577 5578 5579 5580 5581 5584 5584 5585 5585 5586 5586 5586 5586 5587 5587 5587 5587 5587 5587 5588 5588 5589 5589 5588 5588 5588 5587 5587 5586 5586 5586 5585 5585 5585 5584 5584 5584 5583 5583
5565 5567 5566 5572 5570 5571 5571 5572 5573 5574 5576 5576 5577 5577 5578 5578 5578 5578 5578 5578 5578 5578 5578 5578 5578 5578 5578 5578 5578 5578 5577 5576 5576 5575 5575 5575 5574 5574 5573 5573 5573 5572 5572 5571
5559 5558 5560 5563 5564 5564 5564 5565 5566 5567 5568 5568 5568 5569 5570 5570 5569 5569 5569 5569 5569 5569 5569 5568 5568 5568 5568 5568 5568 5567 5566 5566 5565 5564 5564 5564 5563 5563 5562 5562 5561 5561 5560 5560
5552 5552 5553 5558 5557 5556 5557 5558 5560 5559 5559 5559 5559 5561 5562 5560 5560 5560 5560 5560 5559 5559 5559 5558 5558 5558 5558 5558 5557 5556 5556 5555 5554 5554 5553 5553 5552 5552 5551 5551 5550 5549 5549 5548
5546 5545 5547 5550 5550 5549 5551 5553 5551 5551 5551 5551 5551 5551 5552 5551 5551 5550 5550 5550 5549 5549 5549 5549 5548 5548 5548 5547 5547 5546 5545 5545 5544 5543 5543 5542 5542 5541 5540 5540 5539 5538 5538 5537
5539 5539 5544 5543 5542 5543 5543 5543 5542 5542 5542 5542 5542 5542 5541 5541 5541 5540 5540 5540 5539 5539 5539 5538 5538 5538 5538 5537 5536 5535 5535 5534 5533 5533 5532 5532 5531 5530 5530 5529 5529 5528 5527 5526
5533 5536 5536 5535 5535 5535 5534 5534 5534 5534 5533 5533 5533 5532 5532 5532 5531 5531 5530 5530 5529 5529 5529 5528 5528 5528 5528 5527 5526 5525 5524 5523 5523 5522 5522 5521 5521 5520 5519 5519 5518 5517 5517 5516
5526 5527 5527 5527 5527 5527 5526 5526 5525 5525 5525 5524 5524 5523 5522 5522 5521 5520 5520 5520 5519 5519 5519 5518 5518 5518 5517 5516 5516 5515 5514 5513 5512 5512 5511 5510 5510 5510 5509 5508 5508 5507 5507 5506
5518 5520 5520 5519 5519 5519 5518 5518 5517 5517 5516 5515 5514 5514 5513 5512 5511 5511 5510 5510 5509 5509 5509 5508 5508 5508 5507 5506 5506 5505 5504 5503 5503 5502 5501 5500 5500 5499 5499 5498 5497 5497 5496 5495
5512 5513 5512 5512 5512 5511 5511 5510 5509 5508 5507 5506 5505 5504 5503 5502 5502 5501 5501 5500 5499 5499 5499 5498 5498 5498 5497 5496 5496 5495 5494 5494 5493 5492 5491 5491 5490 5490 5488 5488 5487 5487 5486 5485
5505 5505 5504 5505 5504 5503 5502 5501 5500 5499 5498 5497 5496 5495 5494 5493 5492 5492 5491 5490 5490 5489 5489 5489 5488 5488 5487 5486 5486 5485 5485 5484 5483 5483 5482 5482 5481 5480 5480 5479 5478 5477 5477 5476
5498 5497 5497 5497 5497 5496 5495 5494 5492 5491 5490 5489 5488 5487 5486 5485 5484 5482 5481 5480 5480 5480 5479 5479 5479 5478 5478 5477 5477 5476 5475 5474 5474 5473 5473 5472 5472 5471 5471 5470 5469 5469 5468 5467
5491 5490 5490 5489 5488 5488 5487 5486 5485 5484 5482 5481 5480 5479 5478 5477 5475 5474 5472 5471 5471 5470 5470 5470 5469 5469 5468 5468 5467 5467 5466 5465 5465 5464 5463 5463 5463 5462 5462 5461 5460 5460 5459 5458
5484 5483 5482 5482 5481 5480 5479 5478 5477 5476 5475 5474 5473 5471 5470 5469 5467 5466 5464 5463 5462 5462 5461 5461 5460 5460 5460 5459 5458 5458 5457 5456 5455 5455 5454 5454 5454 5453 5453 5452 5451 5451 5451 5450
5477 5477 5476 5475 5474 5473 5472 5471 5470 5469 5467 5466 5465 5464 5463 5461 5460 5458 5457 5456 5455 5454 5453 5453 5452 5452 5451 5450 5450 5449 5448 5447 5447 5446 5446 5445 5445 5444 5444 5443 5443 5443 5442 5441
5471 5470 5469 5468 5467 5466 5465 5464 5463 5461 5460 5459 5458 5456 5455 5454 5452 5451 5450 5449 5447 5447 5446 5445 5444 5443 5443 5442 5441 5440 5440 5439 5438 5438 5437 5437 5436 5436 5435 5435 5434 5434 5433 5433
5464 5464 5463 5462 5461 5460 5458 5457 5456 5454 5453 5452 5450 5449 5448 5446 5445 5444 5442 5441 5440 5439 5438 5437 5436 5435 5435 5434 5433 5432 5432 5431 5430 5430 5429 5429 5428 5428 5427 5427 5426 5426 5425 5425
5458 5458 5457 5456 5454 5453 5452 5450 5449 5447 5446 5444 5443 5442 5440 5439 5438 5437 5435 5434 5433 5431 5431 5430 5429 5428 5427 5426 5425 5425 5424 5423 5423 5422 5421 5421 5421 5420 5420 5419 5419 5418 5418 5417
5453 5452 5451 5450 5448 5447 5445 5444 5442 5440 5439 5437 5436 5434 5433 5432 5431 5429 5428 5427 5426 5424 5423 5422 5421 5420 5420 5419 5418 5418 5417 5416 5416 5415 5415 5414 5414 5413 5413 5412 5412 5411 5410 5410
5448 5447 5445 5444 5442 5441 5439 5437 5435 5433 5432 5430 5429 5427 5426 5425 5424 5422 5421 5420 5419 5417 5416 5415 5414 5413 5412 5412 5411 5411 5410 5409 5409 5408 5408 5407 5407 5406 5406 5405 5405 5404 5403 5402
5442 5441 5440 5438 5436 5435 5433 5431 5429 5427 5425 5423 5422 5421 5419 5418 5417 5416 5415 5414 5412 5411 5410 5408 5407 5406 5406 5405 5405 5404 5403 5403 5402 5402 5401 5401 5400 5400 5399 5398 5398 5397 5396 5395
5437 5435 5434 5432 5430 5429 5427 5424 5422 5420 5419 5417 5416 5414 5413 5412 5411 5410 5409 5407 5406 5405 5403 5402 5401 5400 5399 5399 5398 5398 5397 5396 5396 5395 5395 5394 5393 5393 5392 5391 5390 5390 5389 5388
5432 5430 5428 5426 5425 5423 5420 5418 5416 5414 5413 5411 5410 5408 5407 5406 5405 5404 5402 5401 5400 5399 5398 5396 5395 5394 5393 5393 5392 5391 5391 5390 5389 5389 5388 5387 5387 5386 5385 5384 5383 5383 5382 5381
5427 5425 5423 5421 5419 5417 5415 5413 5411 5409 5407 5406 5404 5403 5401 5400 5399 5397 5396 5395 5394 5393 5391 5390 5389 5388 5387 5387 5386 5385 5384 5384 5383 5382 5381 5381 5380 5379 5378 5378 5377 5376 5375 5375
5422 5420 5418 5416 5414 5412 5410 5408 5406 5404 5402 5400 5399 5398 5396 5394 5393 5392 5390 5389 5388 5386 5385 5384 5383 5383 5382 5381 5380 5379 5378 5377 5377 5376 5375 5374 5373 5373 5372 5371 5370 5370 5369 5368